Location: Jetmore Motorplex
(37.9889°N, 99.8876°W)
Time: 00:16:51
(UTC+00:00)

NOSS 3-1 (C) - Pass Details

Date: 17 February 2020
Orbit: 759 x 1449 km, 63.4° (Epoch: 26 March)

Event Time Altitude Azimuth Distance (km) Brightness Sun altitude
Rises 02:17:52 0° 221° (SW) 3,235 6.8 -24.0°
Reaches altitude 10° 02:20:11 10° 224° (SW) 2,347 6.0 -24.5°
Maximum altitude 02:25:29 64° 306° (NW) 942 3.5 -25.5°
Enters shadow 02:28:51 26° 20° (NNE) 1,705 4.6 -26.2°
